Year,Month,Day,Hour,Minute,Value (Times are PST for temperature in C)
2006,09,01,00,00,11.30
2006,09,01,00,01,11.30
2006,09,01,00,02,11.30
2006,09,01,00,03,11.30
2006,09,01,00,04,11.20
2006,09,01,00,05,11.20
2006,09,01,00,06,11.20
2006,09,01,00,07,11.10
2006,09,01,00,08,11.10
2006,09,01,00,09,11.10
2006,09,01,00,10,11.10
2006,09,01,00,11,10.90
2006,09,01,00,12,10.90
2006,09,01,00,13,10.90
2006,09,01,00,14,10.90
2006,09,01,00,15,10.80
2006,09,01,00,16,10.80
2006,09,01,00,17,10.70
2006,09,01,00,18,10.70
2006,09,01,00,19,10.60
2006,09,01,00,20,10.60
2006,09,01,00,21,10.60
2006,09,01,00,22,10.60
2006,09,01,00,23,10.60
2006,09,01,00,24,10.50
2006,09,01,00,25,10.40
2006,09,01,00,26,10.40
2006,09,01,00,27,10.40
2006,09,01,00,28,10.40
2006,09,01,00,29,10.30
2006,09,01,00,30,10.30
2006,09,01,00,31,10.30
2006,09,01,00,32,10.20
2006,09,01,00,33,10.20
2006,09,01,00,34,10.20
2006,09,01,00,35,10.10
2006,09,01,00,36,10.10
2006,09,01,00,37,10.10
2006,09,01,00,38,10.10
2006,09,01,00,39,10.10
2006,09,01,00,40,10.10
2006,09,01,00,41,10.10
2006,09,01,00,42,10.10
2006,09,01,00,43,10.10
2006,09,01,00,44,10.10
2006,09,01,00,45,10.10
2006,09,01,00,46,10.10
2006,09,01,00,47,10.10
2006,09,01,00,48,10.10
2006,09,01,00,49,10.10
2006,09,01,00,50,10.10
2006,09,01,00,51,10.00
2006,09,01,00,52,9.90
2006,09,01,00,53,9.90
2006,09,01,00,54,9.90
2006,09,01,00,55,9.90
2006,09,01,00,56,9.90
2006,09,01,00,57,9.90
2006,09,01,00,58,9.90
2006,09,01,00,59,9.90
2006,09,01,01,00,9.90
2006,09,01,01,01,9.90
2006,09,01,01,02,9.90
2006,09,01,01,03,9.90
2006,09,01,01,04,9.90
2006,09,01,01,05,9.90
2006,09,01,01,06,9.90
2006,09,01,01,07,9.90
2006,09,01,01,08,9.90
2006,09,01,01,09,9.90
2006,09,01,01,10,9.90
2006,09,01,01,11,9.90
2006,09,01,01,12,10.10
2006,09,01,01,13,10.00
2006,09,01,01,14,9.90
2006,09,01,01,15,9.90
2006,09,01,01,16,9.90
2006,09,01,01,17,9.90
2006,09,01,01,18,9.90
2006,09,01,01,19,9.90
2006,09,01,01,20,9.90
2006,09,01,01,21,9.80
2006,09,01,01,22,9.80
2006,09,01,01,23,9.80
2006,09,01,01,24,9.70
2006,09,01,01,25,9.70
2006,09,01,01,26,9.70
2006,09,01,01,27,9.70
2006,09,01,01,28,9.70
2006,09,01,01,29,9.60
2006,09,01,01,30,9.60
2006,09,01,01,31,9.60
2006,09,01,01,32,9.50
2006,09,01,01,33,9.50
2006,09,01,01,34,9.50
2006,09,01,01,35,9.50
2006,09,01,01,36,9.40
2006,09,01,01,37,9.40
2006,09,01,01,38,9.40
2006,09,01,01,39,9.40
2006,09,01,01,40,9.30
2006,09,01,01,41,9.30
2006,09,01,01,42,9.30
2006,09,01,01,43,9.20
2006,09,01,01,44,9.20
2006,09,01,01,45,9.20
2006,09,01,01,46,9.20
2006,09,01,01,47,9.20
2006,09,01,01,48,9.20
2006,09,01,01,49,9.20
2006,09,01,01,50,9.20
2006,09,01,01,51,9.20
2006,09,01,01,52,9.20
2006,09,01,01,53,9.20
2006,09,01,01,54,9.20
2006,09,01,01,55,9.20
2006,09,01,01,56,9.20
2006,09,01,01,57,9.20
2006,09,01,01,58,9.10
2006,09,01,01,59,9.10
2006,09,01,02,00,9.10
2006,09,01,02,01,9.10
2006,09,01,02,02,9.00
2006,09,01,02,03,9.00
2006,09,01,02,04,9.00
2006,09,01,02,05,9.00
2006,09,01,02,06,9.00
2006,09,01,02,07,9.10
2006,09,01,02,08,9.10
2006,09,01,02,09,9.20
2006,09,01,02,10,9.20
2006,09,01,02,11,9.20
2006,09,01,02,12,9.20
2006,09,01,02,13,9.20
2006,09,01,02,14,9.20
2006,09,01,02,15,9.20
2006,09,01,02,16,9.20
2006,09,01,02,17,9.20
2006,09,01,02,18,9.20
2006,09,01,02,19,9.20
2006,09,01,02,20,9.20
2006,09,01,02,21,9.20
2006,09,01,02,22,9.20
2006,09,01,02,23,9.20
2006,09,01,02,24,9.20
2006,09,01,02,25,9.20
2006,09,01,02,26,9.20
2006,09,01,02,27,9.10
2006,09,01,02,28,9.10
2006,09,01,02,29,9.10
2006,09,01,02,30,9.00
2006,09,01,02,31,9.00
2006,09,01,02,32,9.00
2006,09,01,02,33,9.00
2006,09,01,02,34,9.00
2006,09,01,02,35,8.90
2006,09,01,02,36,8.90
2006,09,01,02,37,8.90
2006,09,01,02,38,8.90
2006,09,01,02,39,8.90
2006,09,01,02,40,8.90
2006,09,01,02,41,8.90
2006,09,01,02,42,8.80
2006,09,01,02,43,8.80
2006,09,01,02,44,8.80
2006,09,01,02,45,8.70
2006,09,01,02,46,8.70
2006,09,01,02,47,8.70
2006,09,01,02,48,8.70
2006,09,01,02,49,8.70
2006,09,01,02,50,8.70
2006,09,01,02,51,8.70
2006,09,01,02,52,8.70
2006,09,01,02,53,8.70
2006,09,01,02,54,8.70
2006,09,01,02,55,8.60
2006,09,01,02,56,8.60
2006,09,01,02,57,8.60
2006,09,01,02,58,8.60
2006,09,01,02,59,8.60
2006,09,01,03,00,8.70
2006,09,01,03,01,8.70
2006,09,01,03,02,8.70
2006,09,01,03,03,8.70
2006,09,01,03,04,8.70
2006,09,01,03,05,8.70
2006,09,01,03,06,8.70
2006,09,01,03,07,8.70
2006,09,01,03,08,8.70
2006,09,01,03,09,8.70
2006,09,01,03,10,8.70
2006,09,01,03,11,8.70
2006,09,01,03,12,8.70
2006,09,01,03,13,8.70
2006,09,01,03,14,8.70
2006,09,01,03,15,8.70
2006,09,01,03,16,8.70
2006,09,01,03,17,8.70
2006,09,01,03,18,8.70
2006,09,01,03,19,8.70
2006,09,01,03,20,8.70
2006,09,01,03,21,8.60
2006,09,01,03,22,8.60
2006,09,01,03,23,8.60
2006,09,01,03,24,8.60
2006,09,01,03,25,8.60
2006,09,01,03,26,8.50
2006,09,01,03,27,8.50
2006,09,01,03,28,8.50
2006,09,01,03,29,8.50
2006,09,01,03,30,8.50
2006,09,01,03,31,8.40
2006,09,01,03,32,8.40
2006,09,01,03,33,8.40
2006,09,01,03,34,8.40
2006,09,01,03,35,8.30
2006,09,01,03,36,8.30
2006,09,01,03,37,8.30
2006,09,01,03,38,8.30
2006,09,01,03,39,8.30
2006,09,01,03,40,8.30
2006,09,01,03,41,8.20
2006,09,01,03,42,8.20
2006,09,01,03,43,8.20
2006,09,01,03,44,8.20
2006,09,01,03,45,8.20
2006,09,01,03,46,8.20
2006,09,01,03,47,8.20
2006,09,01,03,48,8.20
2006,09,01,03,49,8.20
2006,09,01,03,50,8.20
2006,09,01,03,51,8.20
2006,09,01,03,52,8.20
2006,09,01,03,53,8.20
2006,09,01,03,54,8.20
2006,09,01,03,55,8.20
2006,09,01,03,56,8.20
2006,09,01,03,57,8.20
2006,09,01,03,58,8.20
2006,09,01,03,59,8.20
2006,09,01,04,00,8.20
2006,09,01,04,01,8.20
2006,09,01,04,02,8.20
2006,09,01,04,03,8.20
2006,09,01,04,04,8.20
2006,09,01,04,05,8.20
2006,09,01,04,06,8.20
2006,09,01,04,07,8.20
2006,09,01,04,08,8.20
2006,09,01,04,09,8.20
2006,09,01,04,10,8.20
2006,09,01,04,11,8.20
2006,09,01,04,12,8.20
2006,09,01,04,13,8.20
2006,09,01,04,14,8.20
2006,09,01,04,15,8.20
2006,09,01,04,16,8.20
2006,09,01,04,17,8.20
2006,09,01,04,18,8.30
2006,09,01,04,19,8.30
2006,09,01,04,20,8.40
2006,09,01,04,21,8.40
2006,09,01,04,22,8.50
2006,09,01,04,23,8.50
2006,09,01,04,24,8.60
2006,09,01,04,25,8.60
2006,09,01,04,26,8.70
2006,09,01,04,27,8.70
2006,09,01,04,28,8.70
2006,09,01,04,29,8.70
2006,09,01,04,30,8.60
2006,09,01,04,31,8.60
2006,09,01,04,32,8.60
2006,09,01,04,33,8.60
2006,09,01,04,34,8.50
2006,09,01,04,35,8.50
2006,09,01,04,36,8.50
2006,09,01,04,37,8.50
2006,09,01,04,38,8.50
2006,09,01,04,39,8.50
2006,09,01,04,40,8.50
2006,09,01,04,41,8.40
2006,09,01,04,42,8.40
2006,09,01,04,43,8.40
2006,09,01,04,44,8.40
2006,09,01,04,45,8.40
2006,09,01,04,46,8.40
2006,09,01,04,47,8.40
2006,09,01,04,48,8.50
2006,09,01,04,49,8.40
2006,09,01,04,50,8.40
2006,09,01,04,51,8.50
2006,09,01,04,52,8.40
2006,09,01,04,53,8.40
2006,09,01,04,54,8.40
2006,09,01,04,55,8.40
2006,09,01,04,56,8.40
2006,09,01,04,57,8.40
2006,09,01,04,58,8.30
2006,09,01,04,59,8.30
2006,09,01,05,00,8.30
2006,09,01,05,01,8.30
2006,09,01,05,02,8.30
2006,09,01,05,03,8.30
2006,09,01,05,04,8.30
2006,09,01,05,05,8.30
2006,09,01,05,06,8.30
2006,09,01,05,07,8.40
2006,09,01,05,08,8.40
2006,09,01,05,09,8.40
2006,09,01,05,10,8.50
2006,09,01,05,11,8.50
2006,09,01,05,12,8.50
2006,09,01,05,13,8.60
2006,09,01,05,14,8.60
2006,09,01,05,15,8.70
2006,09,01,05,16,8.70
2006,09,01,05,17,8.70
2006,09,01,05,18,8.70
2006,09,01,05,19,8.70
2006,09,01,05,20,8.70
2006,09,01,05,21,8.70
2006,09,01,05,22,8.70
2006,09,01,05,23,8.70
2006,09,01,05,24,8.70
2006,09,01,05,25,8.70
2006,09,01,05,26,8.70
2006,09,01,05,27,8.70
2006,09,01,05,28,8.70
2006,09,01,05,29,8.70
2006,09,01,05,30,8.70
2006,09,01,05,31,8.70
2006,09,01,05,32,8.70
2006,09,01,05,33,8.70
2006,09,01,05,34,8.70
2006,09,01,05,35,8.70
2006,09,01,05,36,8.70
2006,09,01,05,37,8.70
2006,09,01,05,38,8.70
2006,09,01,05,39,8.70
2006,09,01,05,40,8.70
2006,09,01,05,41,8.60
2006,09,01,05,42,8.60
2006,09,01,05,43,8.60
2006,09,01,05,44,8.60
2006,09,01,05,45,8.50
2006,09,01,05,46,8.50
2006,09,01,05,47,8.50
2006,09,01,05,48,8.50
2006,09,01,05,49,8.50
2006,09,01,05,50,8.50
2006,09,01,05,51,8.50
2006,09,01,05,52,8.50
2006,09,01,05,53,8.50
2006,09,01,05,54,8.50
2006,09,01,05,55,8.50
2006,09,01,05,56,8.50
2006,09,01,05,57,8.50
2006,09,01,05,58,8.50
2006,09,01,05,59,8.50
2006,09,01,06,00,8.50
2006,09,01,06,01,8.50
2006,09,01,06,02,8.50
2006,09,01,06,03,8.60
2006,09,01,06,04,8.60
2006,09,01,06,05,8.60
2006,09,01,06,06,8.60
2006,09,01,06,07,8.60
2006,09,01,06,08,8.60
2006,09,01,06,09,8.60
2006,09,01,06,10,8.60
2006,09,01,06,11,8.60
2006,09,01,06,12,8.60
2006,09,01,06,13,8.60
2006,09,01,06,14,8.70
2006,09,01,06,15,8.70
2006,09,01,06,16,8.70
2006,09,01,06,17,8.70
2006,09,01,06,18,8.70
2006,09,01,06,19,8.70
2006,09,01,06,20,8.80
2006,09,01,06,21,8.80
2006,09,01,06,22,8.80
2006,09,01,06,23,8.80
2006,09,01,06,24,8.90
2006,09,01,06,25,8.90
2006,09,01,06,26,8.90
2006,09,01,06,27,8.90
2006,09,01,06,28,8.90
2006,09,01,06,29,9.00
2006,09,01,06,30,9.00
2006,09,01,06,31,9.00
2006,09,01,06,32,9.00
2006,09,01,06,33,9.00
2006,09,01,06,34,9.00
2006,09,01,06,35,9.10
2006,09,01,06,36,9.10
2006,09,01,06,37,9.10
2006,09,01,06,38,9.10
2006,09,01,06,39,9.10
2006,09,01,06,40,9.20
2006,09,01,06,41,9.20
2006,09,01,06,42,9.20
2006,09,01,06,43,9.20
2006,09,01,06,44,9.20
2006,09,01,06,45,9.20
2006,09,01,06,46,9.20
2006,09,01,06,47,9.20
2006,09,01,06,48,9.20
2006,09,01,06,49,9.20
2006,09,01,06,50,9.20
2006,09,01,06,51,9.20
2006,09,01,06,52,9.20
2006,09,01,06,53,9.30
2006,09,01,06,54,9.30
2006,09,01,06,55,9.30
2006,09,01,06,56,9.30
2006,09,01,06,57,9.30
2006,09,01,06,58,9.40
2006,09,01,06,59,9.40
2006,09,01,07,00,9.50
2006,09,01,07,01,9.50
2006,09,01,07,02,9.50
2006,09,01,07,03,9.60
2006,09,01,07,04,9.60
2006,09,01,07,05,9.60
2006,09,01,07,06,9.60
2006,09,01,07,07,9.70
2006,09,01,07,08,9.70
2006,09,01,07,09,9.70
2006,09,01,07,10,9.70
2006,09,01,07,11,9.70
2006,09,01,07,12,9.70
2006,09,01,07,13,9.70
2006,09,01,07,14,9.70
2006,09,01,07,15,9.70
2006,09,01,07,16,9.70
2006,09,01,07,17,9.70
2006,09,01,07,18,9.70
2006,09,01,07,19,9.80
2006,09,01,07,20,9.80
2006,09,01,07,21,9.80
2006,09,01,07,22,9.90
2006,09,01,07,23,9.90
2006,09,01,07,24,9.90
2006,09,01,07,25,9.90
2006,09,01,07,26,10.00
2006,09,01,07,27,10.10
2006,09,01,07,28,10.10
2006,09,01,07,29,10.10
2006,09,01,07,30,10.20
2006,09,01,07,31,10.30
2006,09,01,07,32,10.30
2006,09,01,07,33,10.40
2006,09,01,07,34,10.40
2006,09,01,07,35,10.40
2006,09,01,07,36,10.40
2006,09,01,07,37,10.50
2006,09,01,07,38,10.60
2006,09,01,07,39,10.60
2006,09,01,07,40,10.60
2006,09,01,07,41,10.60
2006,09,01,07,42,10.60
2006,09,01,07,43,10.60
2006,09,01,07,44,10.60
2006,09,01,07,45,10.60
2006,09,01,07,46,10.60
2006,09,01,07,47,10.60
2006,09,01,07,48,10.70
2006,09,01,07,49,10.70
2006,09,01,07,50,10.80
2006,09,01,07,51,10.80
2006,09,01,07,52,10.90
2006,09,01,07,53,10.90
2006,09,01,07,54,11.00
2006,09,01,07,55,11.10
2006,09,01,07,56,11.20
2006,09,01,07,57,11.30
2006,09,01,07,58,11.30
2006,09,01,07,59,11.40
2006,09,01,08,00,11.40
2006,09,01,08,01,11.50
2006,09,01,08,02,11.60
2006,09,01,08,03,11.60
2006,09,01,08,04,11.70
2006,09,01,08,05,11.70
2006,09,01,08,06,11.80
2006,09,01,08,07,11.80
2006,09,01,08,08,12.00
2006,09,01,08,09,12.10
2006,09,01,08,10,12.20
2006,09,01,08,11,12.40
2006,09,01,08,12,12.60
2006,09,01,08,13,12.80
2006,09,01,08,14,13.00
2006,09,01,08,15,13.30
2006,09,01,08,16,13.50
2006,09,01,08,17,13.70
2006,09,01,08,18,13.80
2006,09,01,08,19,14.00
2006,09,01,08,20,14.10
2006,09,01,08,21,14.30
2006,09,01,08,22,14.50
2006,09,01,08,23,14.60
2006,09,01,08,24,14.70
2006,09,01,08,25,14.80
2006,09,01,08,26,14.90
2006,09,01,08,27,15.10
2006,09,01,08,28,15.20
2006,09,01,08,29,15.40
2006,09,01,08,30,15.60
2006,09,01,08,31,15.70
2006,09,01,08,32,15.90
2006,09,01,08,33,16.10
2006,09,01,08,34,16.20
2006,09,01,08,35,16.30
2006,09,01,08,36,16.40
2006,09,01,08,37,16.50
2006,09,01,08,38,16.70
2006,09,01,08,39,16.70
2006,09,01,08,40,16.80
2006,09,01,08,41,16.80
2006,09,01,08,42,16.90
2006,09,01,08,43,16.90
2006,09,01,08,44,17.00
2006,09,01,08,45,17.10
2006,09,01,08,46,17.10
2006,09,01,08,47,17.20
2006,09,01,08,48,17.20
2006,09,01,08,49,17.30
2006,09,01,08,50,17.30
2006,09,01,08,51,17.30
2006,09,01,08,52,17.40
2006,09,01,08,53,17.40
2006,09,01,08,54,17.50
2006,09,01,08,55,17.60
2006,09,01,08,56,17.70
2006,09,01,08,57,17.80
2006,09,01,08,58,17.90
2006,09,01,08,59,18.00
2006,09,01,09,00,18.10
2006,09,01,09,01,18.10
2006,09,01,09,02,18.20
2006,09,01,09,03,18.30
2006,09,01,09,04,18.40
2006,09,01,09,05,18.50
2006,09,01,09,06,18.50
2006,09,01,09,07,18.50
2006,09,01,09,08,18.50
2006,09,01,09,09,18.50
2006,09,01,09,10,18.60
2006,09,01,09,11,18.70
2006,09,01,09,12,18.70
2006,09,01,09,13,18.80
2006,09,01,09,14,18.80
2006,09,01,09,15,18.90
2006,09,01,09,16,18.90
2006,09,01,09,17,19.00
2006,09,01,09,18,19.10
2006,09,01,09,19,19.10
2006,09,01,09,20,19.10
2006,09,01,09,21,19.20
2006,09,01,09,22,19.30
2006,09,01,09,23,19.30
2006,09,01,09,24,19.40
2006,09,01,09,25,19.40
2006,09,01,09,26,19.40
2006,09,01,09,27,19.40
2006,09,01,09,28,19.40
2006,09,01,09,29,19.40
2006,09,01,09,30,19.40
2006,09,01,09,31,19.40
2006,09,01,09,32,19.40
2006,09,01,09,33,19.50
2006,09,01,09,34,19.50
2006,09,01,09,35,19.50
2006,09,01,09,36,19.60
2006,09,01,09,37,19.60
2006,09,01,09,38,19.60
2006,09,01,09,39,19.70
2006,09,01,09,40,19.60
2006,09,01,09,41,19.70
2006,09,01,09,42,19.70
2006,09,01,09,43,19.80
2006,09,01,09,44,19.90
2006,09,01,09,45,19.90
2006,09,01,09,46,19.90
2006,09,01,09,47,19.90
2006,09,01,09,48,19.90
2006,09,01,09,49,19.90
2006,09,01,09,50,19.80
2006,09,01,09,51,19.80
2006,09,01,09,52,19.80
2006,09,01,09,53,19.80
2006,09,01,09,54,19.80
2006,09,01,09,55,19.80
2006,09,01,09,56,19.90
2006,09,01,09,57,19.90
2006,09,01,09,58,19.90
2006,09,01,09,59,20.00
2006,09,01,10,00,20.10
2006,09,01,10,01,20.10
2006,09,01,10,02,20.10
2006,09,01,10,03,20.10
2006,09,01,10,04,20.00
2006,09,01,10,05,20.10
2006,09,01,10,06,20.00
2006,09,01,10,07,19.90
2006,09,01,10,08,20.00
2006,09,01,10,09,20.10
2006,09,01,10,10,20.10
2006,09,01,10,11,20.10
2006,09,01,10,12,20.10
2006,09,01,10,13,20.10
2006,09,01,10,14,19.90
2006,09,01,10,15,19.90
2006,09,01,10,16,19.90
2006,09,01,10,17,20.00
2006,09,01,10,18,20.10
2006,09,01,10,19,20.10
2006,09,01,10,20,20.20
2006,09,01,10,21,20.20
2006,09,01,10,22,20.20
2006,09,01,10,23,20.10
2006,09,01,10,24,20.00
2006,09,01,10,25,19.90
2006,09,01,10,26,20.00
2006,09,01,10,27,20.10
2006,09,01,10,28,20.20
2006,09,01,10,29,20.20
2006,09,01,10,30,20.20
2006,09,01,10,31,20.20
2006,09,01,10,32,20.20
2006,09,01,10,33,20.20
2006,09,01,10,34,20.30
2006,09,01,10,35,20.30
2006,09,01,10,36,20.20
2006,09,01,10,37,20.30
2006,09,01,10,38,20.30
2006,09,01,10,39,20.40
2006,09,01,10,40,20.40
2006,09,01,10,41,20.50
2006,09,01,10,42,20.50
2006,09,01,10,43,20.60
2006,09,01,10,44,20.60
2006,09,01,10,45,20.70
2006,09,01,10,46,20.80
2006,09,01,10,47,20.80
2006,09,01,10,48,20.90
2006,09,01,10,49,21.00
2006,09,01,10,50,21.00
2006,09,01,10,51,21.10
2006,09,01,10,52,21.20
2006,09,01,10,53,21.10
2006,09,01,10,54,21.10
2006,09,01,10,55,21.10
2006,09,01,10,56,21.00
2006,09,01,10,57,21.00
2006,09,01,10,58,21.00
2006,09,01,10,59,21.00
2006,09,01,11,00,21.00
2006,09,01,11,01,20.90
2006,09,01,11,02,20.90
2006,09,01,11,03,20.90
2006,09,01,11,04,21.00
2006,09,01,11,05,21.10
2006,09,01,11,06,21.20
2006,09,01,11,07,21.20
2006,09,01,11,08,21.30
2006,09,01,11,09,21.30
2006,09,01,11,10,21.30
2006,09,01,11,11,21.30
2006,09,01,11,12,21.40
2006,09,01,11,13,21.40
2006,09,01,11,14,21.50
2006,09,01,11,15,21.60
2006,09,01,11,16,21.70
2006,09,01,11,17,21.80
2006,09,01,11,18,21.80
2006,09,01,11,19,21.90
2006,09,01,11,20,21.90
2006,09,01,11,21,22.00
2006,09,01,11,22,22.00
2006,09,01,11,23,22.00
2006,09,01,11,24,22.10
2006,09,01,11,25,22.10
2006,09,01,11,26,22.00
2006,09,01,11,27,21.90
2006,09,01,11,28,21.70
2006,09,01,11,29,21.60
2006,09,01,11,30,21.60
2006,09,01,11,31,21.70
2006,09,01,11,32,21.70
2006,09,01,11,33,21.60
2006,09,01,11,34,21.60
2006,09,01,11,35,21.70
2006,09,01,11,36,21.70
2006,09,01,11,37,21.80
2006,09,01,11,38,21.70
2006,09,01,11,39,21.70
2006,09,01,11,40,21.70
2006,09,01,11,41,21.70
2006,09,01,11,42,21.70
2006,09,01,11,43,21.70
2006,09,01,11,44,21.80
2006,09,01,11,45,21.80
2006,09,01,11,46,21.90
2006,09,01,11,47,21.90
2006,09,01,11,48,21.80
2006,09,01,11,49,21.80
2006,09,01,11,50,21.70
2006,09,01,11,51,21.60
2006,09,01,11,52,21.60
2006,09,01,11,53,21.40
2006,09,01,11,54,21.40
2006,09,01,11,55,21.40
2006,09,01,11,56,21.40
2006,09,01,11,57,21.50
2006,09,01,11,58,21.50
2006,09,01,11,59,21.60
2006,09,01,12,00,21.60
2006,09,01,12,01,21.60
2006,09,01,12,02,21.60
2006,09,01,12,03,21.60
2006,09,01,12,04,21.60
2006,09,01,12,05,21.70
2006,09,01,12,06,21.80
2006,09,01,12,07,21.90
2006,09,01,12,08,21.90
2006,09,01,12,09,22.00
2006,09,01,12,10,22.10
2006,09,01,12,11,22.20
2006,09,01,12,12,22.20
2006,09,01,12,13,22.20
2006,09,01,12,14,22.20
2006,09,01,12,15,22.20
2006,09,01,12,16,22.20
2006,09,01,12,17,22.30
2006,09,01,12,18,22.40
2006,09,01,12,19,22.50
2006,09,01,12,20,22.50
2006,09,01,12,21,22.60
2006,09,01,12,22,22.60
2006,09,01,12,23,22.60
2006,09,01,12,24,22.50
2006,09,01,12,25,22.50
2006,09,01,12,26,22.50
2006,09,01,12,27,22.50
2006,09,01,12,28,22.50
2006,09,01,12,29,22.50
2006,09,01,12,30,22.30
2006,09,01,12,31,22.30
2006,09,01,12,32,22.30
2006,09,01,12,33,22.40
2006,09,01,12,34,22.50
2006,09,01,12,35,22.70
2006,09,01,12,36,22.80
2006,09,01,12,37,22.90
2006,09,01,12,38,22.90
2006,09,01,12,39,22.90
2006,09,01,12,40,22.90
2006,09,01,12,41,22.80
2006,09,01,12,42,22.80
2006,09,01,12,43,22.70
2006,09,01,12,44,22.70
2006,09,01,12,45,22.70
2006,09,01,12,46,22.80
2006,09,01,12,47,22.80
2006,09,01,12,48,22.90
2006,09,01,12,49,23.00
2006,09,01,12,50,23.20
2006,09,01,12,51,23.20
2006,09,01,12,52,23.20
2006,09,01,12,53,23.30
2006,09,01,12,54,23.40
2006,09,01,12,55,23.40
2006,09,01,12,56,23.20
2006,09,01,12,57,23.00
2006,09,01,12,58,22.90
2006,09,01,12,59,22.90
2006,09,01,13,00,22.90
2006,09,01,13,01,22.90
2006,09,01,13,02,22.90
2006,09,01,13,03,22.90
2006,09,01,13,04,22.90
2006,09,01,13,05,23.00
2006,09,01,13,06,22.90
2006,09,01,13,07,22.90
2006,09,01,13,08,22.90
2006,09,01,13,09,23.00
2006,09,01,13,10,23.20
2006,09,01,13,11,23.40
2006,09,01,13,12,23.60
2006,09,01,13,13,23.70
2006,09,01,13,14,23.80
2006,09,01,13,15,23.90
2006,09,01,13,16,24.00
2006,09,01,13,17,24.10
2006,09,01,13,18,24.10
2006,09,01,13,19,24.10
2006,09,01,13,20,24.20
2006,09,01,13,21,24.30
2006,09,01,13,22,24.30
2006,09,01,13,23,24.40
2006,09,01,13,24,24.40
2006,09,01,13,25,24.50
2006,09,01,13,26,24.50
2006,09,01,13,27,24.60
2006,09,01,13,28,24.70
2006,09,01,13,29,24.70
2006,09,01,13,30,24.80
2006,09,01,13,31,24.80
2006,09,01,13,32,24.80
2006,09,01,13,33,24.70
2006,09,01,13,34,24.80
2006,09,01,13,35,24.80
2006,09,01,13,36,24.90
2006,09,01,13,37,24.80
2006,09,01,13,38,24.80
2006,09,01,13,39,24.80
2006,09,01,13,40,24.90
2006,09,01,13,41,24.90
2006,09,01,13,42,24.90
2006,09,01,13,43,25.00
2006,09,01,13,44,25.00
2006,09,01,13,45,25.00
2006,09,01,13,46,25.00
2006,09,01,13,47,25.00
2006,09,01,13,48,24.90
2006,09,01,13,49,24.90
2006,09,01,13,50,24.80
2006,09,01,13,51,24.80
2006,09,01,13,52,24.80
2006,09,01,13,53,24.70
2006,09,01,13,54,24.80
2006,09,01,13,55,24.90
2006,09,01,13,56,24.90
2006,09,01,13,57,24.90
2006,09,01,13,58,25.00
2006,09,01,13,59,25.10
2006,09,01,14,00,25.10
2006,09,01,14,01,25.20
2006,09,01,14,02,25.20
2006,09,01,14,03,25.20
2006,09,01,14,04,25.20
2006,09,01,14,05,25.20
2006,09,01,14,06,25.20
2006,09,01,14,07,25.20
2006,09,01,14,08,25.10
2006,09,01,14,09,25.10
2006,09,01,14,10,25.10
2006,09,01,14,11,25.20
2006,09,01,14,12,25.30
2006,09,01,14,13,25.40
2006,09,01,14,14,25.30
2006,09,01,14,15,25.30
2006,09,01,14,16,25.20
2006,09,01,14,17,25.10
2006,09,01,14,18,25.00
2006,09,01,14,19,25.00
2006,09,01,14,20,25.00
2006,09,01,14,21,25.10
2006,09,01,14,22,25.10
2006,09,01,14,23,25.20
2006,09,01,14,24,25.30
2006,09,01,14,25,25.40
2006,09,01,14,26,25.40
2006,09,01,14,27,25.40
2006,09,01,14,28,25.50
2006,09,01,14,29,25.60
2006,09,01,14,30,25.60
2006,09,01,14,31,25.60
2006,09,01,14,32,25.40
2006,09,01,14,33,25.40
2006,09,01,14,34,25.40
2006,09,01,14,35,25.30
2006,09,01,14,36,25.30
2006,09,01,14,37,25.30
2006,09,01,14,38,25.30
2006,09,01,14,39,25.30
2006,09,01,14,40,25.40
2006,09,01,14,41,25.50
2006,09,01,14,42,25.60
2006,09,01,14,43,25.70
2006,09,01,14,44,25.90
2006,09,01,14,45,26.00
2006,09,01,14,46,26.00
2006,09,01,14,47,26.10
2006,09,01,14,48,26.10
2006,09,01,14,49,26.10
2006,09,01,14,50,26.00
2006,09,01,14,51,26.00
2006,09,01,14,52,26.00
2006,09,01,14,53,26.10
2006,09,01,14,54,26.20
2006,09,01,14,55,26.30
2006,09,01,14,56,26.40
2006,09,01,14,57,26.60
2006,09,01,14,58,26.60
2006,09,01,14,59,26.60
2006,09,01,15,00,26.50
2006,09,01,15,01,26.40
2006,09,01,15,02,26.30
2006,09,01,15,03,26.40
2006,09,01,15,04,26.40
2006,09,01,15,05,26.50
2006,09,01,15,06,26.60
2006,09,01,15,07,26.60
2006,09,01,15,08,26.60
2006,09,01,15,09,26.70
2006,09,01,15,10,26.70
2006,09,01,15,11,26.70
2006,09,01,15,12,26.70
2006,09,01,15,13,26.80
2006,09,01,15,14,26.80
2006,09,01,15,15,26.80
2006,09,01,15,16,26.80
2006,09,01,15,17,26.80
2006,09,01,15,18,26.80
2006,09,01,15,19,26.90
2006,09,01,15,20,27.00
2006,09,01,15,21,27.10
2006,09,01,15,22,27.00
2006,09,01,15,23,26.80
2006,09,01,15,24,26.70
2006,09,01,15,25,26.60
2006,09,01,15,26,26.60
2006,09,01,15,27,26.50
2006,09,01,15,28,26.60
2006,09,01,15,29,26.60
2006,09,01,15,30,26.70
2006,09,01,15,31,26.80
2006,09,01,15,32,26.80
2006,09,01,15,33,26.80
2006,09,01,15,34,26.90
2006,09,01,15,35,27.00
2006,09,01,15,36,27.10
2006,09,01,15,37,27.10
2006,09,01,15,38,27.00
2006,09,01,15,39,27.10
2006,09,01,15,40,27.10
2006,09,01,15,41,27.10
2006,09,01,15,42,26.90
2006,09,01,15,43,27.00
2006,09,01,15,44,27.10
2006,09,01,15,45,27.00
2006,09,01,15,46,26.90
2006,09,01,15,47,26.90
2006,09,01,15,48,26.80
2006,09,01,15,49,26.80
2006,09,01,15,50,26.80
2006,09,01,15,51,26.80
2006,09,01,15,52,26.70
2006,09,01,15,53,26.70
2006,09,01,15,54,26.60
2006,09,01,15,55,26.60
2006,09,01,15,56,26.60
2006,09,01,15,57,26.60
2006,09,01,15,58,26.60
2006,09,01,15,59,26.50
2006,09,01,16,00,26.40
2006,09,01,16,01,26.40
2006,09,01,16,02,26.40
2006,09,01,16,03,26.30
2006,09,01,16,04,26.40
2006,09,01,16,05,26.60
2006,09,01,16,06,26.60
2006,09,01,16,07,26.70
2006,09,01,16,08,26.80
2006,09,01,16,09,26.80
2006,09,01,16,10,26.80
2006,09,01,16,11,26.80
2006,09,01,16,12,26.90
2006,09,01,16,13,27.00
2006,09,01,16,14,27.10
2006,09,01,16,15,27.20
2006,09,01,16,16,27.30
2006,09,01,16,17,27.30
2006,09,01,16,18,27.30
2006,09,01,16,19,27.30
2006,09,01,16,20,27.20
2006,09,01,16,21,27.10
2006,09,01,16,22,27.10
2006,09,01,16,23,27.00
2006,09,01,16,24,26.90
2006,09,01,16,25,26.90
2006,09,01,16,26,27.00
2006,09,01,16,27,27.10
2006,09,01,16,28,27.10
2006,09,01,16,29,27.10
2006,09,01,16,30,27.10
2006,09,01,16,31,27.10
2006,09,01,16,32,27.20
2006,09,01,16,33,27.20
2006,09,01,16,34,27.20
2006,09,01,16,35,27.20
2006,09,01,16,36,27.30
2006,09,01,16,37,27.40
2006,09,01,16,38,27.50
2006,09,01,16,39,27.60
2006,09,01,16,40,27.70
2006,09,01,16,41,27.70
2006,09,01,16,42,27.80
2006,09,01,16,43,27.80
2006,09,01,16,44,27.80
2006,09,01,16,45,27.80
2006,09,01,16,46,27.90
2006,09,01,16,47,28.00
2006,09,01,16,48,28.00
2006,09,01,16,49,28.10
2006,09,01,16,50,28.00
2006,09,01,16,51,28.10
2006,09,01,16,52,28.10
2006,09,01,16,53,28.10
2006,09,01,16,54,28.00
2006,09,01,16,55,28.00
2006,09,01,16,56,27.90
2006,09,01,16,57,27.90
2006,09,01,16,58,27.90
2006,09,01,16,59,27.90
2006,09,01,17,00,27.90
2006,09,01,17,01,27.90
2006,09,01,17,02,27.90
2006,09,01,17,03,27.90
2006,09,01,17,04,27.80
2006,09,01,17,05,27.70
2006,09,01,17,06,27.60
2006,09,01,17,07,27.60
2006,09,01,17,08,27.60
2006,09,01,17,09,27.60
2006,09,01,17,10,27.50
2006,09,01,17,11,27.40
2006,09,01,17,12,27.30
2006,09,01,17,13,27.30
2006,09,01,17,14,27.30
2006,09,01,17,15,27.30
2006,09,01,17,16,27.30
2006,09,01,17,17,27.30
2006,09,01,17,18,27.30
2006,09,01,17,19,27.30
2006,09,01,17,20,27.30
2006,09,01,17,21,27.30
2006,09,01,17,22,27.30
2006,09,01,17,23,27.30
2006,09,01,17,24,27.20
2006,09,01,17,25,27.10
2006,09,01,17,26,27.00
2006,09,01,17,27,26.90
2006,09,01,17,28,26.90
2006,09,01,17,29,27.00
2006,09,01,17,30,27.10
2006,09,01,17,31,27.10
2006,09,01,17,32,27.10
2006,09,01,17,33,27.00
2006,09,01,17,34,26.90
2006,09,01,17,35,26.90
2006,09,01,17,36,26.90